Change the Weather History Date:

Thursday, June 19, 2014

  Actual Average Record
Temperature  
Mean Temperature 58 °F -  
Max Temperature 71 °F 70 °F 89 °F (2005)
Min Temperature 46 °F 49 °F 33 °F (2007)
Degree Days  
Heating Degree Days 6    
Growing Degree Days 8 (Base 50)    
Moisture  
Dew Point 52 °F    
Average Humidity 74    
Maximum Humidity 93    
Minimum Humidity 60    
Precipitation  
Precipitation 0.00 in - - ()
Sea Level Pressure  
Sea Level Pressure 30.07 in    
Wind  
Wind Speed 2 mph (SE)    
Max Wind Speed 8 mph    
Max Gust Speed -    
Visibility 10 miles    
Events Rain    
Averages and records for this station are not official NWS values.
T = Trace of Precipitation, MM = Missing Value Source: NWS Daily Summary

Daily Weather History Graph

Daily Weather History Graph

Search for Another Location

Airport or City:

Trip Planner

Search our weather history database for the weather conditions in past years. The results will help you decide how hot, cold, wet, or windy it might be!

Date:

Astronomy

Jun. 19, 2014 Rise Set
Actual Time 5:08 AM CDT 9:13 PM CDT
Civil Twilight 4:27 AM CDT 9:55 PM CDT
Nautical Twilight 3:28 AM CDT 10:54 PM CDT
Astronomical Twilight 1:41 AM CDT 12:42 AM CDT
Moon 12:47 AM CDT (6/19) 1:13 PM CDT (6/19)
Length of Visible Light 17h 28m
Length of Day
16h 05m
Waning Gibbous, 51% of the Moon is Illuminated
Jun 19
Waning Gibbous
Jun 19
Last Quarter
Jun 27
New
Jul 5
First Quarter
Jul 12
Full

Hourly Weather History & Observations

Time (CDT) Temp. Dew Point Humidity Pressure Visibility Wind Dir Wind Speed Gust Speed Precip Events Conditions
12:08 AM 48.2 °F 42.8 °F 82% 30.13 in 10.0 mi Calm Calm - N/A   Clear
12:28 AM 48.2 °F 42.8 °F 82% 30.13 in 10.0 mi Calm Calm - N/A   Clear
12:48 AM 46.4 °F 42.8 °F 87% 30.12 in 10.0 mi Calm Calm - N/A   Clear
1:08 AM 46.4 °F 42.8 °F 87% 30.12 in 10.0 mi Calm Calm - N/A   Clear
1:28 AM 46.4 °F 42.8 °F 87% 30.11 in 10.0 mi Calm Calm - N/A   Clear
1:49 AM 46.4 °F 44.6 °F 93% 30.09 in 10.0 mi Calm Calm - N/A   Clear
2:08 AM 48.2 °F 46.4 °F 93% 30.09 in 10.0 mi Calm Calm - N/A   Clear
2:30 AM 50.0 °F 46.4 °F 87% 30.10 in 10.0 mi Calm Calm - N/A   Clear
2:48 AM 51.8 °F 46.4 °F 82% 30.09 in 10.0 mi Calm Calm - N/A   Clear
3:08 AM 51.8 °F 44.6 °F 76% 30.09 in 10.0 mi Calm Calm - N/A   Clear
3:28 AM 51.8 °F 46.4 °F 82% 30.08 in 10.0 mi Calm Calm - N/A   Clear
3:48 AM 51.8 °F 44.6 °F 76% 30.09 in 10.0 mi Calm Calm - N/A   Clear
4:08 AM 53.6 °F 44.6 °F 72% 30.10 in 10.0 mi SE 3.5 mph - N/A   Clear
4:28 AM 53.6 °F 44.6 °F 72% 30.10 in 10.0 mi Calm Calm - N/A   Clear
5:08 AM 51.8 °F 44.6 °F 76% 30.11 in 7.0 mi Calm Calm - N/A   Clear
5:29 AM 50.0 °F 42.8 °F 76% 30.11 in 10.0 mi Calm Calm - N/A   Clear
5:49 AM 50.0 °F 44.6 °F 82% 30.11 in 10.0 mi Calm Calm - N/A   Clear
6:09 AM 48.2 °F 42.8 °F 82% 30.12 in 10.0 mi Calm Calm - N/A   Clear
6:29 AM 51.8 °F 44.6 °F 76% 30.11 in 10.0 mi Calm Calm - N/A   Clear
6:48 AM 53.6 °F 48.2 °F 82% 30.11 in 10.0 mi Calm Calm - N/A   Clear
7:08 AM 55.4 °F 48.2 °F 77% 30.12 in 10.0 mi Calm Calm - N/A   Clear
7:28 AM 57.2 °F 48.2 °F 72% 30.12 in 10.0 mi ESE 3.5 mph - N/A   Scattered Clouds
7:49 AM 57.2 °F 50.0 °F 77% 30.13 in 10.0 mi Calm Calm - N/A   Overcast
8:08 AM 59.0 °F 51.8 °F 77% 30.12 in 10.0 mi East 3.5 mph - N/A   Scattered Clouds
8:29 AM 60.8 °F 53.6 °F 77% 30.11 in 10.0 mi East 3.5 mph - N/A   Clear
8:48 AM 64.4 °F 53.6 °F 68% 30.10 in 10.0 mi ESE 4.6 mph - N/A   Clear
9:08 AM 66.2 °F 55.4 °F 68% 30.10 in 10.0 mi East 4.6 mph - N/A   Unknown
10:08 AM 68.0 °F 55.4 °F 64% 30.07 in 10.0 mi ESE 3.5 mph - N/A   Clear
10:28 AM 68.0 °F 55.4 °F 64% 30.06 in 10.0 mi Calm Calm - N/A   Clear
10:49 AM 69.8 °F 57.2 °F 64% 30.05 in 10.0 mi East 3.5 mph - N/A   Clear
11:08 AM 69.8 °F 57.2 °F 64% 30.04 in 10.0 mi East 4.6 mph - N/A   Clear
11:29 AM 69.8 °F 57.2 °F 64% 30.03 in 10.0 mi SE 3.5 mph - N/A   Clear
11:49 AM 69.8 °F 57.2 °F 64% 30.04 in 10.0 mi SE 4.6 mph - N/A   Clear
12:08 PM 71.6 °F 59.0 °F 64% 30.04 in 10.0 mi SSE 3.5 mph - N/A   Clear
12:28 PM 71.6 °F 57.2 °F 60% 30.06 in 10.0 mi SSE 8.1 mph - N/A   Scattered Clouds
12:49 PM 69.8 °F 59.0 °F 68% 30.04 in 10.0 mi ESE 8.1 mph - N/A   Overcast
1:09 PM 71.6 °F 59.0 °F 64% 30.04 in 10.0 mi SE 6.9 mph - N/A   Overcast
1:28 PM 71.6 °F 60.8 °F 69% 30.04 in 10.0 mi SE 8.1 mph - N/A   Overcast
1:49 PM 69.8 °F 59.0 °F 68% 30.05 in 10.0 mi Calm Calm - N/A   Overcast
2:08 PM 68.0 °F 60.8 °F 78% 30.05 in 10.0 mi SE 5.8 mph - N/A   Overcast
2:28 PM 66.2 °F 59.0 °F 78% 30.08 in 10.0 mi SE 6.9 mph - N/A   Overcast
2:48 PM 66.2 °F 59.0 °F 78% 30.08 in 10.0 mi SE 4.6 mph - N/A   Overcast
3:08 PM 66.2 °F 59.0 °F 78% 30.07 in 10.0 mi ESE 3.5 mph - N/A   Overcast
3:29 PM 68.0 °F 60.8 °F 78% 30.06 in 10.0 mi ESE 4.6 mph - N/A   Overcast
3:48 PM 68.0 °F 59.0 °F 73% 30.06 in 10.0 mi SSE 3.5 mph - N/A   Overcast
4:08 PM 68.0 °F 57.2 °F 68% 30.06 in 10.0 mi ESE 3.5 mph - N/A   Overcast
4:28 PM 66.2 °F 59.0 °F 78% 30.06 in 10.0 mi SSE 4.6 mph - N/A   Overcast
4:48 PM 66.2 °F 57.2 °F 73% 30.06 in 10.0 mi East 4.6 mph - N/A   Overcast
5:08 PM 66.2 °F 57.2 °F 73% 30.06 in 10.0 mi SE 5.8 mph - N/A   Overcast
5:29 PM 66.2 °F 57.2 °F 73% 30.06 in 10.0 mi ESE 3.5 mph - N/A   Overcast
5:48 PM 66.2 °F 57.2 °F 73% 30.05 in 10.0 mi ESE 4.6 mph - N/A   Overcast
6:08 PM 66.2 °F 57.2 °F 73% 30.05 in 10.0 mi SE 3.5 mph - N/A   Overcast
6:28 PM 66.2 °F 57.2 °F 73% 30.04 in 10.0 mi Calm Calm - N/A   Overcast
6:48 PM 66.2 °F 55.4 °F 68% 30.04 in 10.0 mi ESE 3.5 mph - N/A   Overcast
7:09 PM 66.2 °F 55.4 °F 68% 30.03 in 10.0 mi SE 3.5 mph - N/A   Overcast
7:28 PM 66.2 °F 55.4 °F 68% 30.03 in 10.0 mi SE 3.5 mph - N/A   Overcast
7:48 PM 64.4 °F 53.6 °F 68% 30.02 in 10.0 mi SSE 5.8 mph - N/A   Overcast
8:08 PM 64.4 °F 53.6 °F 68% 30.02 in 10.0 mi ESE 4.6 mph - N/A   Overcast
8:29 PM 64.4 °F 51.8 °F 64% 30.02 in 10.0 mi SE 4.6 mph - N/A   Mostly Cloudy
8:48 PM 64.4 °F 51.8 °F 64% 30.02 in 10.0 mi SE 3.5 mph - N/A   Overcast
9:08 PM 62.6 °F 51.8 °F 68% 30.02 in 10.0 mi Calm Calm - N/A   Mostly Cloudy
9:29 PM 62.6 °F 51.8 °F 68% 30.02 in 10.0 mi SE 4.6 mph - N/A   Mostly Cloudy
9:48 PM 60.8 °F 51.8 °F 72% 30.02 in 10.0 mi ESE 4.6 mph - N/A   Scattered Clouds
10:09 PM 60.8 °F 51.8 °F 72% 30.02 in 10.0 mi Calm Calm - N/A   Scattered Clouds
10:29 PM 60.8 °F 51.8 °F 72% 30.02 in 10.0 mi Calm Calm - N/A   Mostly Cloudy
10:48 PM 60.8 °F 51.8 °F 72% 30.01 in 10.0 mi Calm Calm - N/A   Overcast
11:08 PM 60.8 °F 53.6 °F 77% 30.01 in 10.0 mi Calm Calm - N/A   Overcast
11:28 PM 60.8 °F 53.6 °F 77% 30.01 in 10.0 mi Calm Calm - N/A   Overcast
11:49 PM 60.8 °F 53.6 °F 77% 30.01 in 7.0 mi SSE 3.5 mph - N/A Rain Rain